sat.trackr.live / text

‹ back to catalog

STARLINK-37022

NORAD 68101 · 2026-044A

PAYLOAD ACTIVE UNKNOWN

§ Identity

Operator
Country
US
Launch date
2026-03-08
Launch site
AFWTR
Launch vehicle
Mass (kg)
RCS (m²)

Purposes: comms

External: N2YO · Heavens-Above · Gunter

§ Orbital elements

Epoch: 2026-09-19T03:17:05.024544Z

Period
93.90 min
Inclination
97.2828°
Eccentricity
0.0002962
Mean motion
15.33474681 rev/d
Perigee alt
463.4 km
Apogee alt
467.5 km
Semi-major
6,843.6 km
B*
7.3454e-4
RAAN
221.0287°
Arg perigee
91.4322°
Mean anomaly
268.7260°
Rev number
3,122

§ Raw data

STARLINK-370221 68101U 26044A   26262.13686371  .00023738  00000+0  73454-3 0  99932 68101  97.2828 221.0287 0002962  91.4322 268.7260 15.33474681 31227

JSON: /api/v1/satellites/68101 · /tle

For live sub-satellite position, see the globe view (requires WebGL).

§ Visibility from observer

Set your observer location to see the next 7 days of passes ≥ 10°. The values pass through the URL so the page stays shareable.

No JS? Fill the form by hand. The geolocation button needs JavaScript.